Change the Weather History Date:

Thursday, November 21, 2013

  Actual Average Record
Temperature  
Mean Temperature 3 °F -  
Max Temperature 17 °F 25 °F 45 °F (1949)
Min Temperature -11 °F 9 °F -30 °F (1971)
Degree Days  
Heating Degree Days 62    
Moisture  
Dew Point -2 °F    
Average Humidity 58    
Maximum Humidity 86    
Minimum Humidity 27    
Precipitation  
Precipitation 0.08 in - - ()
Sea Level Pressure  
Sea Level Pressure 29.65 in    
Wind  
Wind Speed 9 mph (NNE)    
Max Wind Speed 17 mph    
Max Gust Speed 24 mph    
Visibility 6 miles    
Events Fog , Snow    
Averages and records for this station are not official NWS values.
T = Trace of Precipitation, MM = Missing Value Source: NWS Daily Summary

Daily Weather History Graph

Daily Weather History Graph

Search for Another Location

Airport or City:

Trip Planner

Search our weather history database for the weather conditions in past years. The results will help you decide how hot, cold, wet, or windy it might be!

Date:

Astronomy

Nov. 21, 2013 Rise Set
Actual Time 9:32 AM AKST 3:59 PM AKST
Civil Twilight 8:34 AM AKST 4:57 PM AKST
Nautical Twilight 7:36 AM AKST 5:55 PM AKST
Astronomical Twilight 6:43 AM AKST 6:48 PM AKST
Moon 8:00 PM AKST (11/21) 12:33 PM AKST (11/21)
Length of Visible Light 8h 22m
Length of Day
6h 27m
Waning Gibbous, 84% of the Moon is Illuminated
Nov 21
Waning Gibbous
Nov 25
Last Quarter
Dec 2
New
Dec 9
First Quarter
Dec 17
Full

Hourly Weather History & Observations

Time (AKST) Temp. Windchill Dew Point Humidity Pressure Visibility Wind Dir Wind Speed Gust Speed Precip Events Conditions
12:53 AM -0.0 °F -13.0 °F -15.0 °F 49% 30.06 in 10.0 mi NNE 6.9 mph - N/A   Clear
1:53 AM 1.0 °F -11.7 °F -16.1 °F 45% 30.06 in 10.0 mi NNE 6.9 mph - N/A   Clear
3:53 AM 1.0 °F -11.7 °F -16.1 °F 45% 30.03 in 10.0 mi NNE 6.9 mph - N/A   Clear
4:53 AM -0.9 °F -11.0 °F -16.1 °F 49% 30.01 in 10.0 mi North 4.6 mph - N/A   Clear
5:53 AM -0.9 °F -12.7 °F -17.0 °F 47% 29.99 in 10.0 mi North 5.8 mph - N/A   Clear
6:53 AM -2.9 °F -15.0 °F -16.1 °F 54% 29.98 in 10.0 mi NNE 5.8 mph - N/A   Clear
7:53 AM -0.9 °F -12.7 °F -16.1 °F 49% 29.96 in 10.0 mi NNE 5.8 mph - N/A   Clear
8:53 AM 1.0 °F -11.7 °F -15.0 °F 47% 29.94 in 10.0 mi NNE 6.9 mph - N/A   Clear
9:53 AM 1.9 °F -9.2 °F -14.1 °F 47% 29.94 in 10.0 mi NNE 5.8 mph - N/A   Mostly Cloudy
10:53 AM 5.0 °F -6.9 °F -11.9 °F 46% 29.90 in 10.0 mi NNE 6.9 mph - N/A   Mostly Cloudy
11:53 AM 7.0 °F -5.7 °F -9.9 °F 46% 29.87 in 10.0 mi NNE 8.1 mph - N/A   Overcast
12:53 PM 9.0 °F -7.3 °F -9.0 °F 44% 29.82 in 10.0 mi NNE 13.8 mph 21.9 mph N/A   Clear
1:53 PM 10.0 °F -3.7 °F -7.1 °F 46% 29.77 in 10.0 mi NNE 10.4 mph 17.3 mph N/A   Overcast
2:53 PM 10.9 °F -2.6 °F -6.0 °F 47% 29.71 in 10.0 mi NNE 10.4 mph - N/A   Overcast
3:53 PM 12.9 °F 1.6 °F -4.0 °F 47% 29.68 in 10.0 mi NNE 8.1 mph - N/A   Overcast
4:53 PM 14.0 °F 2.9 °F -2.9 °F 47% 29.63 in 10.0 mi NNE 8.1 mph 18.4 mph N/A   Overcast
5:53 PM 14.0 °F 2.9 °F 6.1 °F 71% 29.58 in 2.5 mi NNE 8.1 mph - 0.00 in Snow Light Snow
6:06 PM 14.0 °F 2.0 °F 8.6 °F 79% 29.53 in 1.5 mi NNE 9.2 mph - 0.01 in Snow Light Snow
6:53 PM 14.0 °F 0.5 °F 8.1 °F 77% 29.51 in 1.2 mi NNE 11.5 mph 18.4 mph 0.01 in Snow Light Snow
7:24 PM 14.0 °F 2.0 °F 8.6 °F 79% 29.45 in 0.8 mi North 9.2 mph 19.6 mph 0.01 in Snow Light Snow
7:53 PM 14.0 °F -0.2 °F 10.0 °F 84% 29.46 in 0.5 mi NNE 12.7 mph 19.6 mph 0.03 in Fog , Snow Snow
8:06 PM 14.0 °F -0.2 °F 10.4 °F 86% 29.42 in 1.0 mi NNE 12.7 mph 19.6 mph 0.00 in Snow Light Snow
8:32 PM 15.8 °F 2.7 °F 10.4 °F 79% 29.39 in 2.5 mi NNE 11.5 mph 17.3 mph 0.01 in Snow Light Snow
8:40 PM 15.8 °F 2.1 °F 8.6 °F 73% 29.38 in 5.0 mi NNE 12.7 mph 18.4 mph 0.01 in Snow Light Snow
8:53 PM 16.0 °F 1.7 °F 7.0 °F 68% 29.40 in 7.0 mi NNE 13.8 mph 19.6 mph 0.01 in Snow Light Snow
9:53 PM 17.1 °F 3.6 °F 5.0 °F 59% 29.37 in 10.0 mi NE 12.7 mph 18.4 mph 0.00 in   Overcast
10:42 PM 17.6 °F 5.7 °F 5.0 °F 58% 29.31 in 5.0 mi NNE 10.4 mph - 0.00 in Snow Light Snow
10:49 PM 17.6 °F 3.7 °F 6.8 °F 63% 29.31 in 1.8 mi NE 13.8 mph - 0.00 in Snow Light Snow
10:53 PM 16.0 °F 2.3 °F 7.0 °F 68% 29.34 in 1.5 mi NNE 12.7 mph - 0.00 in Snow Light Snow
11:04 PM 15.8 °F -0.2 °F 8.6 °F 73% 29.30 in 0.8 mi NNE 17.3 mph 20.7 mph 0.00 in Snow Light Snow
11:34 PM 15.8 °F 0.3 °F 10.4 °F 79% 29.31 in 0.5 mi NNE 16.1 mph 23.0 mph 0.02 in Fog , Snow Snow
11:45 PM 15.8 °F 1.4 °F 10.4 °F 79% 29.30 in 0.8 mi NNE 13.8 mph 24.2 mph 0.03 in Snow Light Snow
11:53 PM 15.1 °F 0.5 °F 10.9 °F 84% 29.33 in 1.0 mi NNE 13.8 mph 23.0 mph 0.03 in Snow Light Snow